TimeCDT,TemperatureF,Dew PointF,Humidity,Sea Level PressureIn,VisibilityMPH,Wind Direction,Wind SpeedMPH,Gust SpeedMPH,PrecipitationIn,Events,Conditions,WindDirDegrees,DateUTC
12:55 AM,71.6,69.8,94,30.02,10.0,NNW,3.5,-,N/A,,Overcast,330,2013-07-27 05:55:00
1:55 AM,71.6,69.8,94,29.99,10.0,Calm,Calm,-,N/A,,Overcast,0,2013-07-27 06:55:00
2:55 AM,71.6,71.6,100,29.99,10.0,North,3.5,-,N/A,,Overcast,350,2013-07-27 07:55:00
3:15 AM,71.6,69.8,94,29.98,10.0,NNE,3.5,-,N/A,,Overcast,20,2013-07-27 08:15:00
3:35 AM,71.6,71.6,100,29.97,10.0,NNE,4.6,-,N/A,,Overcast,20,2013-07-27 08:35:00
3:55 AM,71.6,69.8,94,29.97,10.0,Calm,Calm,-,N/A,,Overcast,0,2013-07-27 08:55:00
4:15 AM,73.4,71.6,94,29.97,10.0,North,3.5,-,N/A,,Overcast,350,2013-07-27 09:15:00
4:35 AM,73.4,71.6,94,29.97,10.0,Calm,Calm,-,N/A,,Overcast,0,2013-07-27 09:35:00
4:55 AM,71.6,71.6,100,29.97,10.0,Calm,Calm,-,N/A,,Overcast,0,2013-07-27 09:55:00
5:15 AM,71.6,71.6,100,29.97,10.0,Calm,Calm,-,N/A,,Overcast,0,2013-07-27 10:15:00
5:35 AM,71.6,71.6,100,29.98,10.0,Calm,Calm,-,N/A,,Overcast,0,2013-07-27 10:35:00
5:55 AM,71.6,69.8,94,29.98,10.0,Calm,Calm,-,N/A,,Overcast,0,2013-07-27 10:55:00
6:55 AM,71.6,69.8,94,29.98,10.0,Calm,Calm,-,N/A,,Overcast,0,2013-07-27 11:55:00
7:55 AM,73.4,71.6,94,30.00,10.0,West,5.8,-,N/A,,Mostly Cloudy,270,2013-07-27 12:55:00
8:55 AM,75.2,71.6,89,30.00,10.0,WNW,5.8,-,N/A,,Mostly Cloudy,290,2013-07-27 13:55:00
9:55 AM,77.0,69.8,78,29.99,10.0,WNW,5.8,-,N/A,,Mostly Cloudy,290,2013-07-27 14:55:00
10:55 AM,78.8,69.8,74,29.99,10.0,West,6.9,-,N/A,,Mostly Cloudy,280,2013-07-27 15:55:00
11:55 AM,80.6,68.0,65,29.98,10.0,West,3.5,-,N/A,,Scattered Clouds,270,2013-07-27 16:55:00
12:55 PM,84.2,71.6,66,29.97,10.0,West,8.1,-,N/A,,Mostly Cloudy,280,2013-07-27 17:55:00
1:55 PM,84.2,69.8,62,29.96,10.0,NW,4.6,-,N/A,,Mostly Cloudy,320,2013-07-27 18:55:00
2:55 PM,86.0,69.8,58,29.93,10.0,Variable,4.6,-,N/A,,Mostly Cloudy,0,2013-07-27 19:55:00
3:55 PM,86.0,68.0,55,29.93,10.0,NW,5.8,-,N/A,,Mostly Cloudy,310,2013-07-27 20:55:00
4:55 PM,87.8,69.8,55,29.91,10.0,Calm,Calm,-,N/A,,Mostly Cloudy,0,2013-07-27 21:55:00
5:55 PM,86.0,68.0,55,29.91,10.0,Calm,Calm,-,N/A,,Mostly Cloudy,0,2013-07-27 22:55:00
6:55 PM,84.2,69.8,62,29.91,10.0,NW,3.5,-,N/A,,Mostly Cloudy,310,2013-07-27 23:55:00
7:55 PM,78.8,71.6,78,29.93,10.0,Calm,Calm,-,N/A,,Clear,0,2013-07-28 00:55:00
8:55 PM,77.0,71.6,83,29.94,10.0,Calm,Calm,-,N/A,,Scattered Clouds,0,2013-07-28 01:55:00
9:55 PM,73.4,71.6,94,29.95,10.0,Calm,Calm,-,N/A,,Partly Cloudy,0,2013-07-28 02:55:00
10:55 PM,73.4,68.0,83,29.96,10.0,North,6.9,-,N/A,,Partly Cloudy,10,2013-07-28 03:55:00
11:55 PM,71.6,66.2,83,29.96,10.0,North,4.6,-,N/A,,Clear,10,2013-07-28 04:55:00